www.pogodaiklimat.ru

Погода и климат >> Архив погоды >> Россия >> Камчатский край >> Пущино


ПОГОДА в Пущино

  • Прогноз погоды в Пущино
  • Монитор погоды в Пущино

АРХИВ ПОГОДЫ в Пущино

Время (UTC), дата Ветер
(напр.,м/с)
 
Видим.   Явления Облачность Т
(С)
Тd
(С)
f
(%)
Тe
(С)
Тes
(С)
Комфортность P
(гПа)
Po
(гПа)
Тmin
(С)
Tmax
(С)
R
(мм)
R24
(мм)
S
(см)
15 14.08 штиль 0 4000 м слаб. ливневой дождь 10/10 600 м
[Cb cap]
+12.4 +11.6 95 +12 +12 1011.8 976.0
18 14.08 штиль 0 4000 м слаб. ливневой дождь 10/10 630 м
[Cb cap]
+12.5 +11.5 94 +12 +12 1012.3 976.5
21 14.08 СВ 1 2000 м {ливн. осадки} 10/10 330 м
[St]
+13.5 +12.1 91 +14 +14 1013.3 977.6
00 15.08 В 1 4000 м {ливн. осадки} 10/10 660 м
[Sc]
+16.1 +11.9 76 +17 +17 1012.6 977.2 507
03 15.08 СВ 1 10 км 10/6 600 м
[Sc Ac trans Ci fib]
+21.1 +10.9 52 +23 +23 комфорт 1010.7 976.0
06 15.08 С 1 20 км 3/3 1000 м
[]
+20.9 +10.4 51 +24 +27 комфорт 1010.7 976.0
09 15.08 штиль 0 20 км 10/3 1000 м
[Sc Ac trans Ci fib]
+13.2 +11.8 91 +13 +13 1011.6 976.0 +21.4
12 15.08 штиль 0 20 км 10/3 1000 м
[Sc Ac trans Ci fib]
+11.8 +10.9 94 +11 +11 1013.2 977.3
15 15.08 СВ 1 20 км 10/3 1000 м
[Sc Ac trans]
+13.0 +9.3 78 +13 +13 1011.7 976.0
18 15.08 штиль 0 20 км 10/10 1000 м
[Sc]
+11.8 +9.2 84 +11 +11 1011.8 976.0
21 15.08 В 1 10 км 10/10 800 м
[Sc]
+13.2 +8.6 74 +13 +13 1010.3 974.6 +11.5
00 16.08 СВ 1 4000 м 10/10 570 м
[Sc]
+14.3 +8.7 69 +15 +15 1009.1 973.6
03 16.08 СВ 2 10 км 10/10 800 м
[Sc]
+15.3 +7.1 58 +15 +15 1007.1 971.8
06 16.08 СВ 1 10 км 10/8 1000 м
[Sc Ac trans]
+15.5 +8.0 61 +16 +16 1005.9 970.7
09 16.08 штиль 0 10 км 10/10 900 м
[Sc]
+11.6 +7.7 77 +11 +11 1006.3 970.6 +17.2
12 16.08 штиль 0 10 км 10/10 930 м
[Sc]
+9.7 +6.4 80 +9 +9 1007.7 971.6
15 16.08 СВ 2 10 км 10/10 960 м
[Sc]
+9.1 +6.0 81 +7 +7 1007.7 971.6
18 16.08 СВ 1 4000 м слаб. ливневой дождь 10/10 600 м
[Cb cap]
+8.0 +6.9 93 +7 +7 1008.2 972.0
21 16.08 СВ 1 2000 м слаб. ливневой дождь 10/10 360 м
[Cb cap]
+8.4 +7.2 92 +8 +8 1008.5 972.3 +7.9 1
00 17.08 В 1 2000 м слаб. морось 10/10 330 м
[St]
+9.7 +8.3 91 +9 +9 1008.6 972.5
03 17.08 В 1 4000 м {морось} 10/10 570 м
[Sc]
+11.8 +8.5 80 +12 +12 1008.6 972.8
06 17.08 СВ 1 4000 м {морось} 10/10 600 м
[Sc]
+11.9 +8.4 79 +12 +12 1008.7 973.0
09 17.08 С 1 2000 м слаб. ливневой дождь 10/10 270 м
[Cb cap]
+10.6 +9.5 93 +10 +10 1010.0 974.0 +12.4 0.4
12 17.08 С 1 2000 м слаб. ливневой дождь 10/10 270 м
[Cb cap]
+10.2 +9.1 93 +10 +10 1011.5 975.5
15 17.08 СВ 1 2000 м слаб. ливневой дождь 10/10 300 м
[Cb cap]
+9.6 +8.4 92 +9 +9 1012.5 976.4
18 17.08 СВ 1 2000 м слаб. ливневой дождь 10/10 300 м
[Cb cap]
+9.2 +8.1 93 +8 +8 1013.7 977.4
21 17.08 СВ 2 2000 м слаб. морось 10/10 300 м
[St]
+9.4 +8.2 92 +8 +8 1014.8 978.5 +9.2 2
00 18.08 СВ 1 4000 м {морось} 10/10 570 м
[Sc]
+10.8 +8.4 85 +10 +10 1015.8 979.6
03 18.08 СВ 1 4000 м слаб. ливневой дождь 10/10 600 м
[Cb cap]
+12.1 +9.4 84 +12 +12 1016.4 980.4
06 18.08 СВ 1 4000 м слаб. ливневой дождь 10/10 660 м
[Cb cap]
+13.5 +9.4 76 +14 +14 1016.2 980.4
09 18.08 штиль 0 4000 м {ливн. осадки} 10/10 500 м
[Sc]
+11.8 +10.2 90 +11 +11 1017.7 981.6 +14.5 0.0
12 18.08 штиль 0 2000 м слаб. морось 10/10 300 м
[St]
+11.3 +10.3 94 +11 +11 1019.0 982.8
15 18.08 В 1 2000 м морось 10/10 300 м
[St]
+10.9 +9.8 93 +10 +10 1020.3 984.0
18 18.08 С 1 2000 м слаб. ливневой дождь {морось} 10/10 360 м
[Cb cap]
+10.4 +9.5 94 +10 +10 1021.3 984.9
21 18.08 СВ 1 2000 м слаб. морось 10/10 270 м
[St]
+10.6 +9.5 93 +10 +10 1022.1 985.7 +10.3 3
00 19.08 СВ 1 2000 м {морось} 10/10 330 м
[St]
+12.7 +10.5 86 +13 +13 1022.2 986.0
03 19.08 СВ 1 4000 м 10/10 570 м
[Sc]
+14.9 +10.4 74 +15 +15 1021.4 985.5
06 19.08 СВ 1 4000 м 10/10 600 м
[Sc]
+16.2 +10.5 69 +17 +17 1022.4 986.7
09 19.08 З 1 10 км 10/10 750 м
[Sc]
+13.1 +11.8 92 +13 +13 1022.7 986.7 +16.4 0.0
12 19.08 штиль 0 4000 м 10/10 630 м
[Sc]
+12.5 +11.4 93 +12 +12 1022.0 985.8
15 19.08 СВ 1 4000 м 10/10 500 м
[Sc]
+12.3 +11.0 92 +12 +12 1022.2 986.0
18 19.08 СВ 1 2000 м слаб. морось 10/10 300 м
[St]
+11.4 +10.3 93 +11 +11 1022.9 986.6
21 19.08 СВ 1 2000 м {морось} 10/10 360 м
[St]
+11.4 +9.5 88 +11 +11 1023.0 986.7 +11.1 0.0
00 20.08 СВ 2 10 км {морось} 9/9 840 м
[Sc]
+14.3 +9.2 71 +14 +15 1021.8 985.8
03 20.08 СВ 1 20 км 2 балла +18.7 +10.0 57 +20 +30 1020.6 985.3
06 20.08 СВ 1 20 км 3/0
[Ac trans Ci fib]
+19.0 +10.8 59 +21 +24 комфорт 1017.9 982.7
09 20.08 штиль 0 20 км 8/0
[Ac trans]
+13.2 +11.6 90 +13 +13 1018.2 982.2 +20.0
12 20.08 штиль 0 20 км 10/0
[Ac trans Ci fib]
+9.6 +8.5 93 +9 +9 1019.1 982.7
15 20.08 З 1 20 км 10/0
[Ac trans Ci fib]
+8.1 +7.3 95 +7 +7 1019.3 982.7
18 20.08 штиль 0 20 км 10/0
[Ac trans Ci fib]
+7.4 +6.7 95 +6 +6 1019.4 982.7
21 20.08 штиль 0 20 км 10/0
[Ac trans Ci fib]
+11.1 +10.2 94 +10 +14 1017.7 981.5 +6.3
00 21.08 В 1 20 км 10 баллов +18.3 +9.9 58 +20 +20 1016.5 981.3
03 21.08 СВ 1 20 км 10 баллов +21.0 +7.9 43 +23 +23 комфорт 1014.9 980.0
06 21.08 СВ 1 20 км 10 баллов +20.6 +11.0 54 +24 +24 комфорт 1013.5 978.7
09 21.08 штиль 0 20 км 10/0
[Ci fib]
+12.4 +11.0 91 +12 +12 1014.5 978.6 +22.1

 

Местоположение метеостанции Пущино (Камчатский край, Россия): широта 54.18 долгота 158.00 высота над уровнем моря 303 м.

В архиве по умолчанию представлена погода в Пущино за последнюю неделю. Архивные данные за месяц целиком и за предыдущие месяцы, начиная с января 2011 года, Вы можете получить, выбрав интересующий диапазон дат из раскрывающегося списка и нажав кнопку "Ввод!".


*Определитесь, кто Вы:
робот инопланетянин человек

Внимание! Время в таблицах - всемирное. Для получения местного времени необходимо прибавить поправку, которая равна 12 ч.

Смотрите также архив погоды в соседних городах и на ближайших метеорологических станциях:

Погода в Мильково (Камчатский край, Россия) (64 км)
Погода в Начиках (Камчатский край, Россия) (120 км)
Погода в Долиновке (Камчатский край, Россия) (123 км)
Погода в Сосновке (Камчатский край, Россия) (124 км)
Погода в Семячике (Камчатский край, Россия) (124 км)
Погода в Петропавловск-Камч. 2 (Камчатский край, Россия) (127 км)
Погода в Соболево (Камчатский край, Россия) (137 км)
Погода в Петропавловск-Камчатском (Камчатский край, Россия) (151 км)
Погода в Петропавловском Маяке (Камчатский край, Россия) (152 км)
Погода в Большерецке (Камчатский край, Россия) (188 км)

Пояснения к столбцам:

Ветер - указаны скорость ветра в м/с - средняя за 10 мин, порывы в срок и между сроками (в фигурных скобках) и направление, откуда дует ветер: С - северный, СВ - северо-восточный, В - восточный, ЮВ - юго-восточный, Ю - южный, ЮЗ - юго-западный, З - западный, СЗ - северо-западный.
Видимость - горизонтальная дальность видимости в метрах или километрах. При видимости от 1 до 10 км при отсутствии осадков обычно наблюдается дымка, при ухудшении видимости до 1 км и менее - туман. В сухую погоду видимость может ухудшаться дымом, пылью или мглою.
Явления - указаны атмосферные явления, наблюдавшиеся в срок или в последний час перед сроком; фигурными скобками обозначены явления, наблюдавшиеся между сроками (за 1-3 часа до срока); квадратными скобками обозначены град или гололедные отложения с указанием их диаметра в мм.
Облачность - указаны через наклонную черту общая и нижняя облачность в баллах и высота нижней границы облаков в метрах; квадратными скобками обозначены формы облаков: Ci - перистые, Cs - перисто-слоистые, Cc - перисто-кучевые, Ac - высококучевые, As - высокослоистые, Sc - слоисто-кучевые, Ns - слоисто-дождевые, Cu - кучевые, Cb - кучево-дождевые. Подробнее классификацию облаков см. в Атласе облаков (PDF).
T - Температура воздуха - температура, измеренная на высоте 2 м над землей.
Td - Температура точки росы - температура, при понижении до которой содержащийся в воздухе водяной пар достигнет насыщения.
f - Относительная влажность воздуха - влажноcть воздуха, измеренная на высоте 2 м над землей.
Te - Эффективная температура - температура, которую ощущает одетый по сезону человек в тени. Характеристика душности погоды. При расчете учитывается влияние влажности воздуха и скорости ветра на теплоощущения человека.
Tes - Эффективная температура на солнце - температура, которую ощущает человек, с поправкой на солнечный нагрев. Характеристика знойности погоды. Зависит от высоты солнца над горизонтом, облачности и скорости ветра. Ночью, в пасмурную погоду, а также при ветре 12 м/с и более поправка равна нулю.
P - Атмосферное давление - приведенное к уровню моря атмосферное давление.
Po - Атмосферное давление - измеренное на уровне метеостанции атмосферное давление.
Tmin - Минимальная температура - минимум температуры воздуха на высоте 2 м над землей.
Tmax - Максимальная температура - максимум температуры воздуха на высоте 2 м над землей.
R - Количество осадков - Количество выпавших осадков за период времени, мм. При наведении курсора мыши на число - период времени, за который выпало указанное количество осадков.
R24 - Количество осадков - Количество выпавших осадков за 24 часа, мм.
S - Снежный покров - Высота снежного покрова, см. При наведении курсора мыши на число - состояние снежного покрова и степень покрытия местности в баллах.